HELIOS 1B

Last updated on Sat Mar 14 2026 00:02:18 GMT+0000 (Coordinated Universal Time)

1 25977U 99064A 26072.27855123 .00002187 00000+0 24634-3 0 9997 2 25977 98.1688 334.6271 0002410 70.5247 289.6228 14.87715338685799
UTC large
Height (km)
Speed (km/s)
/
Latitude / Longitude
Inclination (degrees)
Orbital Period (minutes)
Azimuth
Elevation
Range (km)
Doppler Factor

Next 0 passes for location: London (51.5072 / 0.1276)

Sorry there are no passes over London.